User: anonymous   Login
Location: Unspecified
(0.0000°N, 0.0000°E)
Time: 12:46:39
(UTC+00:00)
Language:

GONETS M 12 (M22) - Orbit

View from above orbital plane
View from above orbital plane
View from above satellite
View from above satellite

Ground track
Ground track

The orbit data is extracted from the following two-line orbital elements,

1 40553U 15020B   17263.01796781  .00000010  00000-0  00000+0 0  9993
2 40553  82.4893 220.1156 0015385 104.2993 255.9798 12.42868282112226
Epoch (UTC): 20 September 2017 00:25:52
Eccentricity: 0.0015385
inclination: 82.4893°
perigee height: 1482 km
apogee height: 1506 km
right ascension of ascending node: 220.1156°
argument of perigee: 104.2993°
revolutions per day: 12.42868282
mean anomaly at epoch: 255.9798°
orbit number at epoch: 11222

The dashed part of the orbit path shows where the satellite is in the earth's shadow,  

DLR